Time,TemperatureF,DewpointF,PressureIn,WindDirection,WindDirectionDegrees,WindSpeedMPH,WindSpeedGustMPH,Humidity,HourlyPrecipIn,Conditions,Clouds,dailyrainin,SolarRadiationWatts/m^2,SoftwareType,DateUTC
2013-12-20 00:12:00,18.0,17.0,-100.00,NNW,342,7.0,17.0,94,0.00,,,0.00,0.000000,,2013-12-20 06:12:00,
2013-12-20 00:22:00,18.0,17.0,-100.00,NNW,342,7.0,17.0,94,0.00,,,0.00,0.000000,,2013-12-20 06:22:00,
2013-12-20 00:32:00,18.0,17.0,-100.00,NNW,342,7.0,17.0,94,0.00,,,0.00,0.000000,,2013-12-20 06:32:00,
2013-12-20 00:43:00,18.0,17.0,-100.00,NNW,342,7.0,17.0,94,0.00,,,0.00,0.000000,,2013-12-20 06:43:00,
2013-12-20 01:12:00,17.0,15.0,-100.00,North,349,7.0,18.0,92,0.00,,,0.00,0.000000,,2013-12-20 07:12:00,
2013-12-20 01:22:00,17.0,15.0,-100.00,North,349,7.0,18.0,92,0.00,,,0.00,0.000000,,2013-12-20 07:22:00,
2013-12-20 01:32:00,17.0,15.0,-100.00,North,349,7.0,18.0,92,0.00,,,0.00,0.000000,,2013-12-20 07:32:00,
2013-12-20 01:42:00,17.0,15.0,-100.00,North,349,7.0,18.0,92,0.00,,,0.00,0.000000,,2013-12-20 07:42:00,
2013-12-20 02:12:00,17.0,15.0,-100.00,NNW,339,7.0,16.0,92,0.00,,,0.00,0.000000,,2013-12-20 08:12:00,
2013-12-20 02:22:00,17.0,15.0,-100.00,NNW,339,7.0,16.0,92,0.00,,,0.00,0.000000,,2013-12-20 08:22:00,
2013-12-20 02:32:00,17.0,15.0,-100.00,NNW,339,7.0,16.0,92,0.00,,,0.00,0.000000,,2013-12-20 08:32:00,
2013-12-20 02:42:00,17.0,15.0,-100.00,NNW,339,7.0,16.0,92,0.00,,,0.00,0.000000,,2013-12-20 08:42:00,
2013-12-20 03:11:00,16.0,14.0,-100.00,NNW,335,8.0,17.0,90,0.00,,,0.00,0.000000,,2013-12-20 09:11:00,
2013-12-20 03:22:00,16.0,14.0,-100.00,NNW,335,8.0,17.0,90,0.00,,,0.00,0.000000,,2013-12-20 09:22:00,
2013-12-20 03:33:00,16.0,14.0,-100.00,NNW,335,8.0,17.0,90,0.00,,,0.00,0.000000,,2013-12-20 09:33:00,
2013-12-20 03:43:00,16.0,14.0,-100.00,NNW,335,8.0,17.0,90,0.00,,,0.00,0.000000,,2013-12-20 09:43:00,
2013-12-20 04:12:00,14.0,11.0,-100.00,NNW,333,8.0,18.0,89,0.00,,,0.00,0.000000,,2013-12-20 10:12:00,
2013-12-20 04:23:00,14.0,11.0,-100.00,NNW,333,8.0,18.0,89,0.00,,,0.00,0.000000,,2013-12-20 10:23:00,
2013-12-20 04:33:00,14.0,11.0,-100.00,NNW,333,8.0,18.0,89,0.00,,,0.00,0.000000,,2013-12-20 10:33:00,
2013-12-20 04:42:00,14.0,11.0,-100.00,NNW,333,8.0,18.0,89,0.00,,,0.00,0.000000,,2013-12-20 10:42:00,
2013-12-20 05:12:00,14.0,11.0,-100.00,NNW,329,7.0,19.0,88,0.00,,,0.00,0.000000,,2013-12-20 11:12:00,
2013-12-20 05:22:00,14.0,11.0,-100.00,NNW,329,7.0,19.0,88,0.00,,,0.00,0.000000,,2013-12-20 11:22:00,
2013-12-20 05:33:00,14.0,11.0,-100.00,NNW,329,7.0,19.0,88,0.00,,,0.00,0.000000,,2013-12-20 11:33:00,
2013-12-20 05:42:00,14.0,11.0,-100.00,NNW,329,7.0,19.0,88,0.00,,,0.00,0.000000,,2013-12-20 11:42:00,
2013-12-20 06:12:00,13.0,10.0,-100.00,NW,326,9.0,16.0,89,0.00,,,0.00,0.000000,,2013-12-20 12:12:00,
2013-12-20 06:23:00,13.0,10.0,-100.00,NW,326,9.0,16.0,89,0.00,,,0.00,0.000000,,2013-12-20 12:23:00,
2013-12-20 06:32:00,13.0,10.0,-100.00,NW,326,9.0,16.0,89,0.00,,,0.00,0.000000,,2013-12-20 12:32:00,
2013-12-20 06:42:00,13.0,10.0,-100.00,NW,326,9.0,16.0,89,0.00,,,0.00,0.000000,,2013-12-20 12:42:00,
2013-12-20 07:11:00,13.0,10.0,-100.00,NNW,331,8.0,18.0,89,0.00,,,0.00,0.000000,,2013-12-20 13:11:00,
2013-12-20 07:22:00,13.0,10.0,-100.00,NNW,331,8.0,18.0,89,0.00,,,0.00,0.000000,,2013-12-20 13:22:00,
2013-12-20 07:32:00,13.0,10.0,-100.00,NNW,331,8.0,18.0,89,0.00,,,0.00,0.000000,,2013-12-20 13:32:00,
2013-12-20 07:42:00,13.0,10.0,-100.00,NNW,331,8.0,18.0,89,0.00,,,0.00,0.000000,,2013-12-20 13:42:00,
2013-12-20 08:11:00,13.0,10.0,-100.00,NNW,329,9.0,19.0,89,0.00,,,0.00,0.000000,,2013-12-20 14:11:00,
2013-12-20 08:22:00,13.0,10.0,-100.00,NNW,329,9.0,19.0,89,0.00,,,0.00,0.000000,,2013-12-20 14:22:00,
2013-12-20 08:32:00,13.0,10.0,-100.00,NNW,329,9.0,19.0,89,0.00,,,0.00,0.000000,,2013-12-20 14:32:00,
2013-12-20 08:42:00,13.0,10.0,-100.00,NNW,329,9.0,19.0,89,0.00,,,0.00,0.000000,,2013-12-20 14:42:00,
2013-12-20 09:11:00,13.0,11.0,-100.00,NNW,328,8.0,17.0,90,0.00,,,0.00,10.000000,,2013-12-20 15:11:00,
2013-12-20 09:22:00,13.0,11.0,-100.00,NNW,328,8.0,17.0,90,0.00,,,0.00,10.000000,,2013-12-20 15:22:00,
2013-12-20 09:33:00,13.0,11.0,-100.00,NNW,328,8.0,17.0,90,0.00,,,0.00,10.000000,,2013-12-20 15:33:00,
2013-12-20 09:44:00,13.0,11.0,-100.00,NNW,328,8.0,17.0,90,0.00,,,0.00,10.000000,,2013-12-20 15:44:00,
2013-12-20 10:13:00,13.0,11.0,-100.00,NNW,333,7.0,18.0,90,0.00,,,0.00,41.000000,,2013-12-20 16:13:00,
2013-12-20 10:23:00,13.0,11.0,-100.00,NNW,333,7.0,18.0,90,0.00,,,0.00,41.000000,,2013-12-20 16:23:00,
2013-12-20 10:33:00,13.0,11.0,-100.00,NNW,333,7.0,18.0,90,0.00,,,0.00,41.000000,,2013-12-20 16:33:00,
2013-12-20 10:43:00,13.0,11.0,-100.00,NNW,333,7.0,18.0,90,0.00,,,0.00,41.000000,,2013-12-20 16:43:00,
2013-12-20 11:12:00,14.0,12.0,-100.00,NNW,329,7.0,16.0,90,0.00,,,0.00,62.000000,,2013-12-20 17:12:00,
2013-12-20 11:22:00,14.0,12.0,-100.00,NNW,329,7.0,16.0,90,0.00,,,0.00,62.000000,,2013-12-20 17:22:00,
2013-12-20 11:33:00,14.0,12.0,-100.00,NNW,329,7.0,16.0,90,0.00,,,0.00,62.000000,,2013-12-20 17:33:00,
2013-12-20 11:42:00,14.0,12.0,-100.00,NNW,329,7.0,16.0,90,0.00,,,0.00,62.000000,,2013-12-20 17:42:00,
2013-12-20 12:22:00,15.0,12.0,-100.00,NW,326,6.0,13.0,87,0.00,,,0.00,92.000000,,2013-12-20 18:22:00,
2013-12-20 12:32:00,15.0,12.0,-100.00,NW,326,6.0,13.0,87,0.00,,,0.00,92.000000,,2013-12-20 18:32:00,
2013-12-20 12:42:00,15.0,12.0,-100.00,NW,326,6.0,13.0,87,0.00,,,0.00,92.000000,,2013-12-20 18:42:00,
2013-12-20 13:12:00,16.0,12.0,-100.00,NNW,329,6.0,10.0,85,0.00,,,0.00,112.000000,,2013-12-20 19:12:00,
2013-12-20 13:22:00,16.0,12.0,-100.00,NNW,329,6.0,10.0,85,0.00,,,0.00,112.000000,,2013-12-20 19:22:00,
2013-12-20 13:32:00,16.0,12.0,-100.00,NNW,329,6.0,10.0,85,0.00,,,0.00,112.000000,,2013-12-20 19:32:00,
2013-12-20 13:42:00,16.0,12.0,-100.00,NNW,329,6.0,10.0,85,0.00,,,0.00,112.000000,,2013-12-20 19:42:00,
2013-12-20 14:12:00,16.0,12.0,-100.00,NNW,328,5.0,10.0,85,0.00,,,0.00,107.000000,,2013-12-20 20:12:00,
2013-12-20 14:22:00,16.0,12.0,-100.00,NNW,328,5.0,10.0,85,0.00,,,0.00,107.000000,,2013-12-20 20:22:00,
2013-12-20 14:32:00,16.0,12.0,-100.00,NNW,328,5.0,10.0,85,0.00,,,0.00,107.000000,,2013-12-20 20:32:00,
2013-12-20 14:42:00,16.0,12.0,-100.00,NNW,328,5.0,10.0,85,0.00,,,0.00,107.000000,,2013-12-20 20:42:00,
2013-12-20 15:12:00,17.0,13.0,-100.00,NNW,331,5.0,11.0,85,0.00,,,0.00,84.000000,,2013-12-20 21:12:00,
2013-12-20 15:22:00,17.0,13.0,-100.00,NNW,331,5.0,11.0,85,0.00,,,0.00,84.000000,,2013-12-20 21:22:00,
2013-12-20 15:33:00,17.0,13.0,-100.00,NNW,331,5.0,11.0,85,0.00,,,0.00,84.000000,,2013-12-20 21:33:00,
2013-12-20 15:43:00,17.0,13.0,-100.00,NNW,331,5.0,11.0,85,0.00,,,0.00,84.000000,,2013-12-20 21:43:00,
2013-12-20 16:13:00,17.0,13.0,-100.00,NNW,332,4.0,9.0,84,0.00,,,0.00,55.000000,,2013-12-20 22:13:00,
2013-12-20 16:23:00,17.0,13.0,-100.00,NNW,332,4.0,9.0,84,0.00,,,0.00,55.000000,,2013-12-20 22:23:00,
2013-12-20 16:33:00,17.0,13.0,-100.00,NNW,332,4.0,9.0,84,0.00,,,0.00,55.000000,,2013-12-20 22:33:00,
2013-12-20 16:43:00,17.0,13.0,-100.00,NNW,332,4.0,9.0,84,0.00,,,0.00,55.000000,,2013-12-20 22:43:00,
2013-12-20 17:12:00,16.0,12.0,-100.00,NW,322,4.0,8.0,83,0.00,,,0.00,14.000000,,2013-12-20 23:12:00,
2013-12-20 17:22:00,16.0,12.0,-100.00,NW,322,4.0,8.0,83,0.00,,,0.00,14.000000,,2013-12-20 23:22:00,
2013-12-20 17:33:00,16.0,12.0,-100.00,NW,322,4.0,8.0,83,0.00,,,0.00,14.000000,,2013-12-20 23:33:00,
2013-12-20 17:42:00,16.0,12.0,-100.00,NW,322,4.0,8.0,83,0.00,,,0.00,14.000000,,2013-12-20 23:42:00,
2013-12-20 18:11:00,17.0,12.0,-100.00,NW,320,4.0,7.0,82,0.00,,,0.00,0.000000,,2013-12-21 00:11:00,
2013-12-20 18:22:00,17.0,12.0,-100.00,NW,320,4.0,7.0,82,0.00,,,0.00,0.000000,,2013-12-21 00:22:00,
2013-12-20 18:32:00,17.0,12.0,-100.00,NW,320,4.0,7.0,82,0.00,,,0.00,0.000000,,2013-12-21 00:32:00,
2013-12-20 18:42:00,17.0,12.0,-100.00,NW,320,4.0,7.0,82,0.00,,,0.00,0.000000,,2013-12-21 00:42:00,
2013-12-20 19:11:00,17.0,12.0,-100.00,NNW,344,3.0,6.0,82,0.00,,,0.00,0.000000,,2013-12-21 01:11:00,
2013-12-20 19:22:00,17.0,12.0,-100.00,NNW,344,3.0,6.0,82,0.00,,,0.00,0.000000,,2013-12-21 01:22:00,
2013-12-20 19:32:00,17.0,12.0,-100.00,NNW,344,3.0,6.0,82,0.00,,,0.00,0.000000,,2013-12-21 01:32:00,
2013-12-20 19:42:00,17.0,12.0,-100.00,NNW,344,3.0,6.0,82,0.00,,,0.00,0.000000,,2013-12-21 01:42:00,
2013-12-20 20:12:00,17.0,12.0,-100.00,North,4,2.0,6.0,82,0.00,,,0.00,0.000000,,2013-12-21 02:12:00,
2013-12-20 20:21:00,17.0,12.0,-100.00,North,4,2.0,6.0,82,0.00,,,0.00,0.000000,,2013-12-21 02:21:00,
2013-12-20 20:32:00,17.0,12.0,-100.00,North,4,2.0,6.0,82,0.00,,,0.00,0.000000,,2013-12-21 02:32:00,
2013-12-20 20:42:00,17.0,12.0,-100.00,North,4,2.0,6.0,82,0.00,,,0.00,0.000000,,2013-12-21 02:42:00,
2013-12-20 21:11:00,17.0,12.0,-100.00,NW,317,2.0,4.0,80,0.00,,,0.00,0.000000,,2013-12-21 03:11:00,
2013-12-20 21:22:00,17.0,12.0,-100.00,NW,317,2.0,4.0,80,0.00,,,0.00,0.000000,,2013-12-21 03:22:00,
2013-12-20 21:33:00,17.0,12.0,-100.00,NW,317,2.0,4.0,80,0.00,,,0.00,0.000000,,2013-12-21 03:33:00,
2013-12-20 21:43:00,17.0,12.0,-100.00,NW,317,2.0,4.0,80,0.00,,,0.00,0.000000,,2013-12-21 03:43:00,
2013-12-20 22:13:00,17.0,12.0,-100.00,WNW,298,3.0,5.0,82,0.00,,,0.00,0.000000,,2013-12-21 04:13:00,
2013-12-20 22:23:00,17.0,12.0,-100.00,WNW,298,3.0,5.0,82,0.00,,,0.00,0.000000,,2013-12-21 04:23:00,
2013-12-20 22:32:00,17.0,12.0,-100.00,WNW,298,3.0,5.0,82,0.00,,,0.00,0.000000,,2013-12-21 04:32:00,
2013-12-20 22:43:00,17.0,12.0,-100.00,WNW,298,3.0,5.0,82,0.00,,,0.00,0.000000,,2013-12-21 04:43:00,
2013-12-20 23:12:00,17.0,12.0,-100.00,WNW,296,2.0,5.0,82,0.00,,,0.00,0.000000,,2013-12-21 05:12:00,
2013-12-20 23:22:00,17.0,12.0,-100.00,WNW,296,2.0,5.0,82,0.00,,,0.00,0.000000,,2013-12-21 05:22:00,
2013-12-20 23:33:00,17.0,12.0,-100.00,WNW,296,2.0,5.0,82,0.00,,,0.00,0.000000,,2013-12-21 05:33:00,
2013-12-20 23:42:00,17.0,12.0,-100.00,WNW,296,2.0,5.0,82,0.00,,,0.00,0.000000,,2013-12-21 05:42:00,